Date,TemperatureHighF,TemperatureAvgF,TemperatureLowF,DewpointHighF,DewpointAvgF,DewpointLowF,HumidityHigh,HumidityAvg,HumidityLow,PressureMaxIn,PressureMinIn,WindSpeedMaxMPH,WindSpeedAvgMPH,GustSpeedMaxMPH,PrecipitationSumIn
2013-3-1,69,56,48,-100,-100,-100,0,0,100,30.41,30.21,11,-10,13,0.00
2013-3-2,63,55,52,-100,-100,-100,0,0,100,30.23,30.05,12,-16,19,0.00
2013-3-3,59,52,49,-100,-100,-100,0,0,100,30.09,30.03,16,7,26,0.00
2013-3-4,53,49,47,-100,-100,-100,0,0,100,30.14,30.04,17,6,23,0.00
2013-3-5,55,50,47,-100,-100,-100,0,0,100,30.05,29.81,22,10,36,0.00
2013-3-6,55,52,50,-100,-100,-100,0,0,100,30.05,29.81,19,7,31,0.00
2013-3-7,53,49,47,-100,-100,-100,0,0,100,29.98,29.84,13,7,16,0.00
2013-3-8,55,51,48,-100,-100,-100,0,0,100,30.03,29.81,19,8,29,0.00
2013-3-9,63,53,47,-100,-100,-100,0,0,100,30.28,30.02,13,-16,17,0.00
2013-3-10,64,53,49,-100,-100,-100,0,0,100,30.33,30.23,11,-11,16,0.00
2013-3-11,67,53,48,-100,-100,-100,0,0,100,30.25,30.09,15,-17,20,0.00
2013-3-12,67,53,48,-100,-100,-100,0,0,100,30.15,30.05,11,-38,16,0.00
2013-3-13,74,56,47,-100,-100,-100,0,0,100,30.15,30.04,9,-10,13,0.00
2013-3-14,62,54,50,-100,-100,-100,0,0,100,30.15,30.07,15,-24,20,0.00
2013-3-15,64,55,51,-100,-100,-100,0,0,100,30.11,30.02,11,-45,16,0.00
2013-3-16,63,54,48,-100,-100,-100,0,0,100,30.10,30.01,12,5,22,0.00
2013-3-17,61,54,51,-100,-100,-100,0,0,100,30.14,30.03,15,-9,24,0.00
2013-3-18,62,53,50,-100,-100,-100,0,0,100,30.11,30.02,15,-16,28,0.00
2013-3-19,61,54,50,-100,-100,-100,0,0,100,30.12,30.04,11,-10,17,0.00
2013-3-20,57,53,51,-100,-100,-100,0,0,100,30.12,30.04,14,6,17,0.00
2013-3-21,59,52,47,-100,-100,-100,0,0,100,30.11,30.00,13,-7,18,0.00
2013-3-22,62,55,50,-100,-100,-100,0,0,100,30.11,30.01,15,-15,20,0.00
2013-3-23,62,54,50,-100,-100,-100,0,0,100,30.12,30.03,13,-2,19,0.00
2013-3-24,63,52,49,-100,-100,-100,0,0,100,30.08,29.96,13,-10,21,0.00
2013-3-25,54,50,47,-100,-100,-100,0,0,100,30.02,29.91,17,7,27,0.00
2013-3-26,58,52,48,-100,-100,-100,0,0,100,29.99,29.92,17,8,22,0.00
2013-3-27,59,54,51,-100,-100,-100,0,0,100,30.00,29.93,10,5,17,0.00
2013-3-28,62,56,53,-100,-100,-100,0,0,100,30.07,29.98,12,5,17,0.00
2013-3-29,70,56,50,-100,-100,-100,0,0,100,30.07,30.00,15,4,21,0.00
2013-3-30,66,56,52,-100,-100,-100,0,0,100,30.06,29.96,11,6,16,0.00
2013-3-31,62,58,54,-100,-100,-100,0,0,100,30.04,29.97,14,6,19,0.00